Temperature
18 18 18 18 17 17 17 17 17 17 17 17 17 17 17 17 17 17 17 17 17 17 17 16 16 16 16 16 16 16 16 16 16 16 16 16 16 15 15 15 15 15 15
18 17 17 17 17 17 17 17 17 17 17 17 17 17 17 17 17 17 17 17 17 17 16 16 16 16 16 16 16 16 16 16 16 16 16 16 16 15 15 15 15 15 15
17 17 17 17 17 17 17 17 17 17 17 17 17 17 17 17 17 17 17 17 17 16 16 16 16 16 16 16 16 16 16 16 16 16 16 16 16 15 15 15 15 15 15
17 17 17 17 17 17 17 17 17 17 17 17 17 17 17 17 17 17 17 16 17 17 16 16 16 16 16 16 16 16 16 16 16 16 16 16 16 15 15 15 15 15 15
17 17 17 17 17 17 17 17 17 17 17 17 17 17 17 16 16 16 16 16 16 16 16 16 16 16 16 16 16 16 16 16 16 16 16 16 16 15 15 15 15 15 15
17 17 17 17 17 17 17 17 17 17 17 17 17 17 17 16 16 16 16 16 16 16 16 16 16 16 16 16 16 16 16 16 16 16 16 16 15 15 15 15 15 15 15
17 17 17 17 17 17 17 17 17 17 17 17 17 17 17 17 17 17 16 16 16 16 16 16 16 16 16 16 16 16 16 16 16 16 15 15 15 15 15 15 15 15 15
17 17 17 17 17 17 17 17 17 17 17 17 17 17 17 17 17 17 17 17 16 16 16 16 16 16 16 16 16 16 16 16 16 15 15 15 15 15 15 15 15 15 15
17 17 17 17 17 17 17 17 17 17 17 17 17 17 17 17 17 17 17 17 17 17 17 16 16 16 16 16 16 16 16 16 16 15 15 15 15 15 15 15 15 15 15
17 17 17 17 17 17 17 17 17 17 17 17 17 17 17 17 17 17 17 17 17 17 17 17 17 16 16 16 16 16 16 16 16 15 15 15 15 15 15 15 15 15 15
17 17 17 17 17 17 17 17 17 17 17 17 17 17 17 17 17 17 17 17 17 17 17 17 17 17 17 16 16 16 16 16 16 16 15 15 15 15 15 15 15 15 15
17 17 17 17 17 17 17 17 17 17 17 17 17 17 17 17 17 17 17 17 17 17 17 17 17 17 17 17 17 16 16 16 16 16 16 16 15 15 15 15 15 15 15
17 17 17 17 17 17 17 17 17 17 17 17 17 17 17 17 17 17 17 17 17 17 17 17 17 17 17 17 17 17 16 16 16 16 16 16 15 15 15 15 15 15 15
17 17 17 17 17 17 17 17 17 16 16 16 16 17 17 17 17 17 17 17 17 17 17 17 17 17 17 17 17 17 17 16 16 16 16 16 16 15 15 15 15 15 15
17 17 17 17 17 16 16 16 16 16 16 16 16 16 16 16 16 16 16 16 16 16 16 17 17 17 17 17 17 17 16 16 16 16 16 16 15 15 15 15 15 15 15
17 16 16 16 16 16 16 16 16 16 16 16 16 16 16 16 16 16 16 16 16 16 16 16 16 16 17 17 16 16 16 16 16 16 16 15 15 15 15 15 15 15 14
17 16 16 16 16 16 16 16 16 16 16 16 16 16 16 16 16 16 16 16 16 16 16 16 16 16 16 16 16 16 16 16 16 16 16 15 15 15 15 15 15 14 14
16 16 16 16 16 16 16 16 16 16 16 16 16 16 16 16 16 16 15 15 15 15 15 15 15 15 16 16 16 16 16 15 15 15 15 15 15 15 15 14 14 14 14
16 16 16 16 16 16 16 16 16 16 16 16 15 15 15 15 15 15 15 15 15 15 15 15 15 15 15 15 15 15 15 15 15 15 15 15 15 14 14 14 14 14 13
16 16 16 16 16 16 16 16 16 16 15 15 15 15 15 15 15 15 15 15 15 15 15 14 14 14 14 14 14 14 14 14 14 14 14 14 14 14 13 13 13 13 13
16 16 16 16 16 16 16 16 16 15 15 15 15 15 14 14 14 14 14 14 14 14 14 14 14 14 14 14 14 14 14 14 13 13 13 13 13 13 12 12 12 12 12
16 16 16 15 15 15 15 15 15 15 15 14 14 14 14 14 14 14 14 14 14 14 14 13 13 13 13 13 13 13 13 13 13 12 12 12 12 12 11 11 11 11 11
15 15 15 15 15 15 15 15 15 15 14 14 14 14 14 14 14 14 14 14 13 13 13 13 13 12 12 12 12 12 12 12 12 11 11 11 11 11 10 10 10 10 10
15 15 15 15 15 14 14 14 14 14 14 14 14 13 13 13 13 13 13 13 13 13 12 12 12 12 12 11 11 11 11 11 11 10 10 10 10 10 9 9 9 9 9
15 15 14 14 14 14 14 14 14 14 14 13 13 13 13 13 13 12 12 12 12 12 11 11 11 11 11 11 11 11 10 10 10 10 9 9 9 9 9 9 8 8 8
14 14 14 14 14 13 13 13 13 13 13 13 13 12 12 12 12 12 12 11 11 11 10 10 10 10 10 10 10 10 9 9 9 9 8 8 8 8 8 8 8 7 7
Wind_Speed
3 2 2 3 3 3 3 3 3 3 3 4 5 6 6 6 6 6 6 8 9 9 9 9 9 9 8 8 8 8 8 8 8 8 8 8 8 8 8 8 7 6 7
5 3 2 2 2 2 3 3 2 2 2 3 3 4 5 6 6 6 5 7 8 9 9 9 9 9 9 8 8 8 8 8 8 8 8 8 7 8 8 8 7 7 6
7 5 3 2 2 3 3 3 3 3 2 2 2 3 4 5 6 6 5 5 6 7 8 8 8 9 9 9 9 9 9 9 9 9 9 8 8 8 8 8 8 7 7
9 6 4 3 4 3 3 3 2 2 2 2 2 1 2 3 5 5 5 5 5 6 7 8 9 9 9 10 10 10 10 10 10 10 10 10 9 9 9 9 8 8 8
9 7 5 4 4 3 2 2 2 2 2 2 2 1 1 2 3 5 5 6 7 7 7 8 9 10 10 10 10 11 11 11 11 11 11 11 11 11 10 10 10 10 9
10 8 6 5 5 3 2 2 2 2 2 2 2 1 0 1 2 3 5 6 7 8 8 8 8 9 10 11 11 11 11 12 12 12 12 12 12 12 12 11 11 11 10
10 9 5 5 5 4 4 4 3 3 2 2 2 1 2 1 2 3 4 5 7 9 9 9 9 9 9 11 12 12 12 12 13 13 13 13 13 13 13 13 12 12 12
10 9 7 5 5 4 4 4 3 3 2 2 3 2 1 2 2 3 3 5 6 7 8 10 10 10 10 10 11 13 13 13 13 13 14 14 14 14 14 14 14 14 13
9 8 9 7 6 5 5 5 5 5 3 2 2 3 3 3 2 2 3 4 5 5 7 9 11 11 12 11 11 13 14 15 14 14 14 15 15 16 16 15 15 15 15
8 8 8 8 7 5 6 6 5 4 5 3 2 1 2 3 2 2 2 2 4 5 6 7 9 11 12 12 13 14 15 15 16 15 15 15 16 16 16 16 15 15 15
5 7 8 7 6 5 6 5 5 5 4 4 4 2 2 1 1 2 2 2 2 3 4 6 7 9 11 12 13 14 16 16 16 16 15 15 16 17 16 16 16 16 15
3 5 6 7 6 5 6 6 5 6 5 4 4 3 3 3 3 3 3 3 3 3 3 4 5 7 9 11 12 14 15 16 16 16 15 15 15 16 16 15 15 15 15
4 5 5 5 5 5 6 6 5 5 5 5 5 4 4 3 3 3 3 2 2 2 2 2 4 6 8 10 11 13 14 14 15 15 15 15 15 15 15 14 14 14 13
5 4 5 5 5 5 5 5 4 5 4 5 6 5 4 4 4 4 3 3 1 2 2 3 2 4 6 7 10 12 11 13 14 14 14 14 14 14 14 13 13 13 12
4 4 5 5 4 4 5 5 4 5 5 5 5 5 4 3 4 4 3 3 4 3 3 3 2 2 4 5 7 7 8 10 12 13 13 13 12 12 12 12 12 12 12
4 4 5 5 5 5 5 5 5 4 5 4 4 5 4 3 3 3 3 3 3 4 4 3 3 2 3 3 3 4 6 7 8 9 10 10 11 12 12 12 11 11 11
4 5 5 5 5 5 5 5 5 5 5 5 4 5 5 4 3 3 3 3 3 3 4 3 2 2 1 2 2 2 2 3 3 5 7 8 9 10 10 10 10 10 10
3 4 4 4 5 5 5 6 6 5 5 5 5 5 5 4 4 3 3 4 4 4 4 4 2 1 2 2 2 1 2 1 1 2 2 3 4 5 5 6 6 6 6
3 3 3 4 4 4 5 5 5 5 5 5 5 5 5 4 4 3 3 3 3 3 3 3 2 1 1 1 2 2 2 3 3 3 3 2 2 2 2 1 1 1 2
3 2 3 3 3 3 3 4 4 4 3 2 2 3 3 3 4 4 4 4 3 3 2 2 2 1 1 1 1 1 1 2 3 5 6 6 7 7 6 5 4 4 3
2 2 2 1 1 2 2 3 3 3 3 2 1 1 1 2 2 3 3 3 3 2 2 1 1 1 1 0 1 1 0 1 2 3 3 5 6 7 7 8 8 8 7
2 2 2 1 1 1 2 3 3 2 2 2 1 1 1 1 1 2 3 3 3 3 3 2 2 1 1 1 1 1 1 0 0 2 2 3 4 4 6 7 8 8 8
2 2 2 2 1 1 3 5 6 4 3 3 2 1 1 1 2 3 5 6 6 5 3 3 2 1 1 1 1 0 1 1 0 1 1 2 2 3 5 8 10 10 9
2 2 2 2 3 3 5 6 7 6 4 4 3 3 3 2 2 4 5 5 5 5 4 3 3 2 2 1 0 1 1 2 2 3 2 1 2 2 4 7 10 10 9
3 3 3 3 3 3 5 5 6 5 5 6 6 6 5 4 4 5 6 6 6 6 11 13 12 11 11 10 6 3 3 3 2 3 3 2 2 2 2 4 8 10 10
4 4 4 4 5 4 6 6 6 5 6 5 5 6 8 7 8 7 6 6 6 5 6 8 10 12 12 14 14 7 3 2 2 2 4 2 2 2 2 2 5 8 8
Wind_Direction
148 147 140 132 128 121 116 106 97 97 109 130 146 149 152 156 159 159 165 169 167 166 165 165 163 160 160 158 158 158 159 158 158 158 160 161 162 162 161 159 154 152 153
167 166 162 160 163 156 146 133 123 116 115 130 144 154 157 163 169 169 175 180 181 180 179 179 177 175 174 173 174 174 174 174 172 172 174 175 176 177 177 173 169 170 171
179 177 174 189 197 175 152 133 117 103 105 116 131 152 161 172 177 181 184 188 191 193 192 192 191 190 190 189 191 192 191 190 188 187 187 189 190 190 188 184 184 185 187
185 177 178 196 196 174 152 138 131 114 107 116 133 157 165 180 191 191 195 199 202 205 208 209 207 205 206 206 205 205 204 202 201 200 200 201 202 203 202 201 199 199 200
188 180 186 197 184 166 164 167 140 134 138 140 154 147 174 203 207 208 209 213 215 217 220 225 223 220 220 221 219 217 213 210 210 210 210 209 210 212 213 213 212 210 211
190 183 186 189 178 165 168 155 136 116 125 144 142 111 331 242 225 226 226 224 225 226 227 230 231 232 232 233 229 226 222 218 217 218 219 218 218 218 218 218 218 218 219
191 183 185 180 179 180 180 164 142 135 123 129 102 45 348 295 244 237 233 233 233 232 231 233 235 236 238 241 240 237 234 229 225 224 224 223 224 223 222 222 223 225 226
191 190 184 183 182 174 170 169 153 142 145 152 140 125 349 328 292 243 229 231 236 233 234 236 234 235 237 240 244 244 242 239 235 231 229 228 229 228 227 226 228 230 232
197 195 190 184 184 178 184 186 174 164 168 176 171 154 163 229 280 293 249 236 234 230 237 238 237 236 237 238 243 246 245 243 241 239 236 232 230 231 231 231 232 234 235
200 200 194 189 188 185 187 192 185 177 162 178 192 199 181 165 175 285 303 266 247 238 238 240 240 237 235 235 240 245 247 248 246 244 243 238 235 234 234 234 236 237 239
205 201 195 191 192 193 192 190 180 183 179 176 179 173 165 144 158 181 264 296 283 250 240 239 241 241 238 237 240 245 247 248 248 247 246 244 240 237 236 237 240 242 243
207 203 196 193 194 195 194 194 190 186 189 181 181 180 176 176 191 188 219 251 268 278 260 242 239 241 239 239 241 244 244 245 246 245 245 245 244 241 239 240 243 245 245
206 208 201 194 194 199 196 187 186 195 193 190 195 202 202 203 179 178 191 225 254 283 295 270 247 244 242 238 240 240 241 241 243 245 245 245 243 241 241 243 245 246 246
208 200 196 193 192 194 196 186 193 203 200 205 209 203 207 213 198 190 184 178 223 284 286 278 288 259 255 244 243 238 239 240 240 243 245 245 243 241 241 243 244 244 243
202 190 193 193 195 197 195 188 200 204 196 205 211 209 213 221 210 210 198 186 186 227 262 271 275 287 272 255 253 244 243 246 242 241 241 241 240 239 240 242 242 242 241
192 180 189 190 195 199 199 196 204 202 198 208 208 206 213 221 214 208 208 208 203 203 237 259 260 289 300 283 270 249 250 252 249 241 238 238 238 237 237 240 241 241 242
187 185 187 190 197 202 201 199 205 198 201 213 214 209 217 207 206 210 207 206 208 200 228 261 268 296 311 317 331 299 269 260 266 257 246 241 238 239 238 237 238 239 240
185 186 184 192 200 203 199 198 205 203 205 215 223 217 226 210 205 211 207 212 211 206 212 241 270 310 314 329 346 347 349 323 303 320 271 245 236 233 236 234 232 234 240
176 178 181 192 198 199 198 200 199 201 206 216 220 217 222 202 207 213 210 216 217 208 204 218 249 286 314 1 21 11 21 19 25 28 37 54 78 102 112 126 143 175 209
160 167 177 185 186 187 191 189 186 192 191 199 216 217 207 197 211 213 215 217 211 201 191 204 239 272 296 348 51 347 357 30 29 35 47 57 66 73 73 77 77 79 86
157 150 147 147 153 177 192 180 174 176 174 169 165 172 162 154 178 191 197 196 182 174 167 185 235 263 287 290 241 248 260 44 44 33 43 45 52 57 58 64 69 71 73
118 115 124 130 120 189 147 149 154 149 149 141 142 135 122 109 112 116 127 129 139 170 191 195 210 224 259 256 240 185 187 140 31 11 49 42 50 53 48 55 63 68 66
112 106 105 107 102 87 99 105 108 115 111 112 114 105 93 59 86 101 86 78 70 69 110 157 160 194 224 244 206 161 132 126 140 345 71 53 38 44 41 46 54 61 59
102 99 95 99 92 77 92 103 105 102 90 80 76 74 79 57 68 103 101 86 72 56 63 85 103 83 64 45 152 187 160 118 84 34 40 62 30 39 36 40 47 52 50
92 84 78 86 91 71 73 99 108 101 89 75 67 64 69 68 69 103 108 101 85 67 67 75 75 68 59 53 60 84 94 99 68 31 18 54 32 29 31 27 33 42 46
97 89 76 69 76 69 65 85 103 107 99 85 69 61 63 71 67 81 99 103 94 77 75 68 62 57 54 51 50 53 67 86 80 45 12 24 25 27 45 25 20 23 31
Height
1573 1574 1576 1577 1578 1580 1581 1582 1583 1584 1585 1586 1587 1588 1588 1589 1589 1590 1591 1592 1592 1593 1594 1595 1596 1597 1598 1599 1600 1601 1601 1602 1603 1604 1605 1606 1606 1607 1608 1609 1609 1610 1611
1574 1575 1577 1578 1579 1581 1582 1583 1584 1585 1586 1587 1588 1589 1589 1590 1590 1591 1591 1592 1593 1594 1595 1595 1596 1597 1598 1599 1600 1601 1602 1602 1603 1604 1605 1606 1606 1607 1608 1609 1609 1610 1610
1574 1576 1577 1578 1580 1581 1582 1584 1585 1586 1587 1588 1589 1589 1590 1591 1591 1591 1592 1593 1593 1594 1595 1596 1596 1597 1598 1599 1600 1601 1601 1602 1603 1604 1605 1605 1606 1607 1607 1608 1609 1609 1610
1574 1576 1577 1579 1580 1581 1583 1584 1585 1586 1587 1588 1589 1590 1590 1591 1591 1592 1592 1593 1593 1594 1595 1595 1596 1597 1598 1598 1599 1600 1601 1601 1602 1603 1604 1604 1605 1606 1606 1607 1608 1608 1609
1574 1575 1577 1578 1580 1581 1582 1584 1584 1586 1587 1588 1589 1589 1590 1591 1591 1592 1592 1593 1593 1594 1594 1595 1596 1596 1597 1598 1598 1599 1600 1601 1601 1602 1603 1603 1604 1605 1605 1606 1607 1607 1608
1573 1575 1576 1578 1579 1580 1582 1583 1584 1585 1586 1587 1588 1589 1590 1590 1590 1591 1592 1592 1593 1593 1594 1594 1595 1596 1596 1597 1597 1598 1598 1599 1600 1600 1601 1602 1602 1603 1604 1604 1605 1606 1606
1572 1573 1575 1577 1578 1580 1581 1582 1583 1584 1586 1587 1588 1588 1589 1589 1589 1590 1590 1591 1592 1592 1593 1593 1594 1594 1595 1595 1596 1596 1597 1597 1598 1599 1599 1600 1601 1601 1602 1602 1603 1604 1604
1570 1572 1573 1575 1577 1578 1580 1581 1582 1583 1585 1586 1587 1587 1588 1589 1588 1588 1589 1589 1590 1591 1591 1592 1592 1593 1593 1594 1594 1595 1595 1595 1596 1596 1597 1598 1598 1599 1599 1600 1601 1601 1602
1568 1569 1571 1573 1575 1576 1578 1579 1581 1582 1583 1585 1586 1587 1587 1586 1586 1587 1587 1588 1588 1589 1590 1590 1591 1591 1591 1592 1592 1593 1593 1593 1594 1594 1595 1595 1596 1596 1597 1597 1598 1598 1599
1565 1567 1569 1571 1573 1574 1576 1577 1579 1580 1582 1583 1584 1585 1586 1585 1586 1585 1586 1586 1586 1587 1587 1588 1589 1589 1589 1590 1590 1591 1591 1591 1592 1592 1592 1593 1593 1594 1594 1594 1595 1595 1596
1562 1564 1566 1568 1570 1572 1573 1575 1577 1578 1579 1581 1582 1583 1583 1584 1584 1584 1584 1584 1585 1585 1585 1586 1586 1587 1587 1587 1588 1588 1589 1589 1589 1589 1590 1590 1590 1591 1591 1592 1592 1592 1593
1559 1561 1563 1565 1567 1569 1570 1572 1574 1575 1577 1578 1579 1580 1581 1581 1581 1582 1582 1582 1582 1583 1583 1583 1583 1584 1584 1585 1585 1585 1586 1586 1586 1587 1587 1587 1587 1588 1588 1588 1589 1589 1589
1556 1558 1560 1562 1564 1566 1568 1570 1571 1573 1574 1575 1576 1577 1578 1579 1579 1580 1580 1580 1580 1580 1580 1581 1581 1581 1581 1582 1582 1582 1583 1583 1583 1584 1584 1584 1584 1584 1585 1585 1585 1585 1586
1553 1555 1556 1558 1561 1563 1565 1566 1568 1569 1571 1572 1573 1574 1575 1576 1576 1577 1578 1578 1578 1578 1578 1578 1578 1578 1578 1578 1579 1579 1579 1580 1580 1580 1581 1581 1581 1581 1581 1581 1581 1582 1582
1550 1552 1553 1556 1558 1560 1561 1563 1565 1566 1567 1568 1569 1570 1571 1572 1573 1574 1575 1575 1576 1575 1575 1575 1575 1575 1575 1575 1575 1576 1576 1576 1576 1577 1577 1577 1577 1577 1577 1578 1578 1578 1578
1548 1549 1551 1553 1555 1557 1559 1560 1561 1563 1564 1565 1566 1567 1567 1568 1569 1570 1571 1572 1572 1573 1572 1571 1572 1572 1572 1572 1572 1572 1572 1572 1572 1573 1573 1573 1573 1573 1573 1574 1574 1574 1574
1545 1547 1549 1550 1552 1554 1556 1557 1558 1559 1560 1561 1562 1563 1563 1564 1565 1566 1567 1568 1568 1568 1568 1568 1568 1568 1568 1568 1568 1568 1568 1568 1568 1568 1569 1569 1569 1569 1569 1569 1569 1569 1569
1543 1545 1546 1548 1549 1551 1552 1553 1554 1556 1557 1557 1558 1559 1559 1560 1561 1562 1563 1563 1564 1564 1564 1564 1564 1565 1564 1564 1564 1564 1564 1564 1564 1564 1564 1564 1564 1564 1564 1564 1564 1564 1564
1541 1543 1544 1545 1546 1548 1549 1550 1551 1552 1553 1553 1554 1555 1555 1556 1556 1557 1558 1559 1559 1560 1560 1560 1560 1561 1560 1560 1560 1560 1560 1560 1560 1560 1559 1559 1559 1559 1559 1559 1559 1559 1559
1539 1540 1542 1543 1544 1545 1546 1547 1547 1548 1549 1550 1550 1550 1551 1551 1552 1553 1554 1555 1555 1556 1556 1556 1556 1556 1556 1556 1556 1556 1556 1556 1556 1555 1555 1555 1555 1554 1554 1554 1554 1554 1554
1537 1538 1539 1540 1541 1542 1543 1543 1544 1544 1545 1546 1547 1547 1547 1548 1549 1550 1551 1551 1552 1552 1552 1552 1552 1552 1552 1552 1552 1552 1552 1552 1552 1552 1551 1551 1551 1550 1550 1550 1550 1550 1550
1536 1537 1537 1538 1539 1539 1540 1540 1541 1541 1542 1542 1543 1544 1545 1545 1546 1547 1547 1548 1548 1548 1548 1548 1548 1548 1548 1549 1549 1548 1548 1548 1548 1549 1548 1548 1548 1547 1547 1547 1546 1547 1547
1535 1535 1536 1536 1537 1537 1538 1538 1539 1539 1540 1540 1541 1542 1542 1543 1543 1543 1544 1544 1544 1545 1545 1545 1545 1545 1545 1545 1546 1545 1545 1545 1545 1545 1545 1545 1545 1545 1545 1544 1544 1543 1544
1533 1534 1534 1535 1535 1535 1536 1537 1537 1538 1538 1538 1539 1540 1540 1540 1541 1541 1541 1541 1542 1542 1542 1542 1542 1542 1543 1543 1543 1543 1542 1542 1542 1542 1542 1543 1543 1542 1543 1542 1541 1541 1542
1532 1532 1532 1533 1533 1534 1535 1535 1536 1536 1537 1537 1538 1538 1538 1538 1539 1539 1539 1539 1539 1539 1540 1540 1540 1540 1540 1540 1540 1540 1540 1540 1540 1540 1540 1540 1540 1540 1540 1540 1540 1540 1539
1530 1531 1531 1532 1532 1533 1534 1534 1535 1535 1535 1536 1536 1536 1537 1537 1537 1538 1538 1537 1537 1538 1538 1538 1538 1538 1538 1538 1538 1538 1539 1539 1539 1539 1539 1539 1539 1539 1539 1539 1538 1538 1537